Location: *
(60.1759°S, 155.0663°W)
Time: 02:52:04
(UTC+00:00)

Cosmos 1833 Rocket - Pass Details

Date: 17 September 2019
Orbit: 834 x 838 km, 71.0° (Epoch: 20 October)

Event Time Altitude Azimuth Distance (km) Brightness Sun altitude
Rises 15:32:50 0° 320° (NW) 3,400 5.4 -7.1°
Reaches altitude 10° 15:35:16 10° 319° (NW) 2,472 4.7 -6.8°
Maximum altitude 15:40:59 84° 229° (SW) 864 2.8 -6.1°
Drops below altitude 10° 15:46:44 10° 140° (SE) 2,495 5.9 -5.4°
Sets 15:49:12 0° 139° (SE) 3,434 6.6 -5.1°
